Time,TemperatureF,DewpointF,PressureIn,WindDirection,WindDirectionDegrees,WindSpeedMPH,WindSpeedGustMPH,Humidity,HourlyPrecipIn,Conditions,Clouds,dailyrainin,SoftwareType,DateUTC
2013-02-11 00:00:00,64.7,58.4,30.18,SE,128,2.0,2.0,80,0.00,,,0.00,Wunderground v.1.15,2013-02-11 05:00:00,
2013-02-11 00:05:00,64.7,58.7,30.18,ESE,122,1.0,2.0,81,0.00,,,0.00,Wunderground v.1.15,2013-02-11 05:05:00,
2013-02-11 00:10:00,64.7,58.7,30.18,SE,137,1.0,5.0,81,0.00,,,0.00,Wunderground v.1.15,2013-02-11 05:10:00,
2013-02-11 00:15:00,64.7,58.7,30.18,SSE,159,1.0,5.0,81,0.00,,,0.00,Wunderground v.1.15,2013-02-11 05:15:00,
2013-02-11 00:20:00,64.6,58.6,30.18,SSW,195,1.0,1.0,81,0.00,,,0.00,Wunderground v.1.15,2013-02-11 05:20:00,
2013-02-11 00:25:00,64.6,58.6,30.18,SE,144,2.0,2.0,81,0.00,,,0.00,Wunderground v.1.15,2013-02-11 05:25:00,
2013-02-11 00:30:00,64.5,58.5,30.18,SW,217,2.0,2.0,81,0.00,,,0.00,Wunderground v.1.15,2013-02-11 05:30:00,
2013-02-11 00:35:00,64.5,58.9,30.18,SSW,192,1.0,2.0,82,0.00,,,0.00,Wunderground v.1.15,2013-02-11 05:35:00,
2013-02-11 00:45:00,64.4,58.8,30.17,East,87,1.0,1.0,82,0.00,,,0.00,Wunderground v.1.15,2013-02-11 05:45:00,
2013-02-11 00:50:00,64.3,58.7,30.17,SE,137,1.0,1.0,82,0.00,,,0.00,Wunderground v.1.15,2013-02-11 05:50:00,
2013-02-11 01:00:00,64.1,58.8,30.17,SSE,166,1.0,1.0,83,0.00,,,0.00,Wunderground v.1.15,2013-02-11 06:00:00,
2013-02-11 01:10:00,64.1,58.8,30.17,South,173,1.0,1.0,83,0.00,,,0.00,Wunderground v.1.15,2013-02-11 06:10:00,
2013-02-11 01:15:00,64.0,58.7,30.17,SW,214,1.0,1.0,83,0.00,,,0.00,Wunderground v.1.15,2013-02-11 06:15:00,
2013-02-11 01:25:00,63.8,58.9,30.16,SSE,158,1.0,1.0,84,0.00,,,0.00,Wunderground v.1.15,2013-02-11 06:25:00,
2013-02-11 01:30:00,63.8,58.9,30.16,ESE,111,1.0,1.0,84,0.00,,,0.00,Wunderground v.1.15,2013-02-11 06:30:00,
2013-02-11 01:35:00,63.8,58.9,30.16,SSE,165,1.0,1.0,84,0.00,,,0.00,Wunderground v.1.15,2013-02-11 06:35:00,
2013-02-11 01:45:00,63.7,59.1,30.16,SE,138,1.0,1.0,85,0.00,,,0.00,Wunderground v.1.15,2013-02-11 06:45:00,
2013-02-11 01:50:00,63.7,59.1,30.16,SE,132,0.0,0.0,85,0.00,,,0.00,Wunderground v.1.15,2013-02-11 06:50:00,
2013-02-11 02:00:00,63.6,59.0,30.16,ESE,116,0.0,0.0,85,0.00,,,0.00,Wunderground v.1.15,2013-02-11 07:00:00,
2013-02-11 02:05:00,63.6,59.0,30.17,SSW,211,0.0,0.0,85,0.00,,,0.00,Wunderground v.1.15,2013-02-11 07:05:00,
2013-02-11 02:15:00,63.4,59.1,30.16,SE,140,0.0,0.0,86,0.00,,,0.00,Wunderground v.1.15,2013-02-11 07:15:00,
2013-02-11 02:25:00,63.3,59.0,30.17,SE,125,1.0,1.0,86,0.00,,,0.00,Wunderground v.1.15,2013-02-11 07:25:00,
2013-02-11 02:35:00,63.3,59.0,30.17,SW,215,1.0,1.0,86,0.00,,,0.00,Wunderground v.1.15,2013-02-11 07:35:00,
2013-02-11 02:40:00,63.2,58.9,30.16,South,187,0.0,0.0,86,0.00,,,0.00,Wunderground v.1.15,2013-02-11 07:40:00,
2013-02-11 02:45:00,63.1,58.8,30.17,South,187,0.0,0.0,86,0.00,,,0.00,Wunderground v.1.15,2013-02-11 07:45:00,
2013-02-11 02:55:00,62.9,59.0,30.17,South,187,0.0,0.0,87,0.00,,,0.00,Wunderground v.1.15,2013-02-11 07:55:00,
2013-02-11 03:00:00,62.6,58.7,30.16,South,187,0.0,0.0,87,0.00,,,0.00,Wunderground v.1.15,2013-02-11 08:00:00,
2013-02-11 03:10:00,62.1,58.5,30.16,South,187,0.0,0.0,88,0.00,,,0.00,Wunderground v.1.15,2013-02-11 08:10:00,
2013-02-11 03:20:00,61.8,58.5,30.15,South,178,0.0,0.0,89,0.00,,,0.00,Wunderground v.1.15,2013-02-11 08:20:00,
2013-02-11 03:30:00,61.6,58.3,30.15,South,178,0.0,0.0,89,0.00,,,0.00,Wunderground v.1.15,2013-02-11 08:30:00,
2013-02-11 03:35:00,61.7,58.4,30.15,South,177,0.0,0.0,89,0.00,,,0.00,Wunderground v.1.15,2013-02-11 08:35:00,
2013-02-11 03:45:00,61.6,58.6,30.14,South,177,0.0,0.0,90,0.00,,,0.00,Wunderground v.1.15,2013-02-11 08:45:00,
2013-02-11 03:50:00,61.6,58.6,30.15,South,177,0.0,0.0,90,0.00,,,0.00,Wunderground v.1.15,2013-02-11 08:50:00,
2013-02-11 03:55:00,61.5,58.5,30.16,South,177,0.0,0.0,90,0.00,,,0.00,Wunderground v.1.15,2013-02-11 08:55:00,
2013-02-11 04:05:00,61.1,58.1,30.16,South,177,0.0,0.0,90,0.00,,,0.00,Wunderground v.1.15,2013-02-11 09:05:00,
2013-02-11 04:15:00,60.7,58.1,30.16,South,177,0.0,0.0,91,0.00,,,0.00,Wunderground v.1.15,2013-02-11 09:15:00,
2013-02-11 04:20:00,60.4,57.8,30.16,South,177,0.0,0.0,91,0.00,,,0.00,Wunderground v.1.15,2013-02-11 09:20:00,
2013-02-11 04:30:00,60.1,57.8,30.16,South,177,0.0,0.0,92,0.00,,,0.00,Wunderground v.1.15,2013-02-11 09:30:00,
2013-02-11 04:40:00,59.8,57.5,30.16,South,177,0.0,0.0,92,0.00,,,0.00,Wunderground v.1.15,2013-02-11 09:40:00,
2013-02-11 04:45:00,59.6,57.6,30.16,South,177,0.0,0.0,93,0.00,,,0.00,Wunderground v.1.15,2013-02-11 09:45:00,
2013-02-11 04:55:00,59.4,57.4,30.16,South,177,0.0,0.0,93,0.00,,,0.00,Wunderground v.1.15,2013-02-11 09:55:00,
2013-02-11 05:00:00,59.3,57.3,30.17,South,177,0.0,0.0,93,0.00,,,0.00,Wunderground v.1.15,2013-02-11 10:00:00,
2013-02-11 05:05:00,59.2,57.2,30.16,South,177,0.0,0.0,93,0.00,,,0.00,Wunderground v.1.15,2013-02-11 10:05:00,
2013-02-11 05:15:00,59.2,57.5,30.17,South,177,0.0,0.0,94,0.00,,,0.00,Wunderground v.1.15,2013-02-11 10:15:00,
2013-02-11 05:20:00,59.3,57.6,30.17,South,177,0.0,0.0,94,0.00,,,0.00,Wunderground v.1.15,2013-02-11 10:20:00,
2013-02-11 05:30:00,59.5,57.8,30.17,NE,49,0.0,0.0,94,0.00,,,0.00,Wunderground v.1.15,2013-02-11 10:30:00,
2013-02-11 05:40:00,59.6,57.9,30.17,NE,49,0.0,0.0,94,0.00,,,0.00,Wunderground v.1.15,2013-02-11 10:40:00,
2013-02-11 05:45:00,59.6,57.9,30.17,NE,49,0.0,0.0,94,0.00,,,0.00,Wunderground v.1.15,2013-02-11 10:45:00,
2013-02-11 05:50:00,59.5,57.8,30.17,NE,49,0.0,0.0,94,0.00,,,0.00,Wunderground v.1.15,2013-02-11 10:50:00,
2013-02-11 06:00:00,59.4,57.7,30.17,NE,49,0.0,0.0,94,0.00,,,0.00,Wunderground v.1.15,2013-02-11 11:00:00,
2013-02-11 06:10:00,59.3,57.6,30.17,NE,49,0.0,0.0,94,0.00,,,0.00,Wunderground v.1.15,2013-02-11 11:10:00,
2013-02-11 06:20:00,59.5,58.1,30.17,ESE,107,0.0,0.0,95,0.00,,,0.00,Wunderground v.1.15,2013-02-11 11:20:00,
2013-02-11 06:30:00,59.7,58.3,30.18,ESE,107,0.0,0.0,95,0.00,,,0.00,Wunderground v.1.15,2013-02-11 11:30:00,
2013-02-11 06:40:00,59.7,58.0,30.18,ESE,107,0.0,0.0,94,0.00,,,0.00,Wunderground v.1.15,2013-02-11 11:40:00,
2013-02-11 06:45:00,59.7,58.0,30.18,ESE,112,0.0,0.0,94,0.00,,,0.00,Wunderground v.1.15,2013-02-11 11:45:00,
2013-02-11 06:50:00,59.7,58.0,30.18,ESE,112,0.0,0.0,94,0.00,,,0.00,Wunderground v.1.15,2013-02-11 11:50:00,
2013-02-11 07:00:00,59.7,58.0,30.18,ESE,112,0.0,0.0,94,0.00,,,0.00,Wunderground v.1.15,2013-02-11 12:00:00,
2013-02-11 07:10:00,59.9,58.2,30.18,South,183,0.0,0.0,94,0.00,,,0.00,Wunderground v.1.15,2013-02-11 12:10:00,
2013-02-11 07:15:00,59.9,58.2,30.18,South,183,0.0,0.0,94,0.00,,,0.00,Wunderground v.1.15,2013-02-11 12:15:00,
2013-02-11 07:25:00,60.1,58.4,30.18,ESE,123,0.0,0.0,94,0.00,,,0.00,Wunderground v.1.15,2013-02-11 12:25:00,
2013-02-11 07:30:00,60.3,58.9,30.18,ESE,121,0.0,0.0,95,0.00,,,0.00,Wunderground v.1.15,2013-02-11 12:30:00,
2013-02-11 07:35:00,60.4,59.0,30.18,East,100,0.0,0.0,95,0.00,,,0.00,Wunderground v.1.15,2013-02-11 12:35:00,
2013-02-11 07:45:00,60.7,59.0,30.19,SW,224,0.0,0.0,94,0.00,,,0.00,Wunderground v.1.15,2013-02-11 12:45:00,
2013-02-11 07:55:00,61.1,59.4,30.19,ESE,121,0.0,2.0,94,0.00,,,0.00,Wunderground v.1.15,2013-02-11 12:55:00,
2013-02-11 08:00:00,61.4,59.7,30.19,SE,138,0.0,0.0,94,0.00,,,0.00,Wunderground v.1.15,2013-02-11 13:00:00,
2013-02-11 08:10:00,62.1,60.1,30.19,SSE,149,0.0,1.0,93,0.00,,,0.00,Wunderground v.1.15,2013-02-11 13:10:00,
2013-02-11 08:15:00,62.6,60.5,30.20,SSE,150,0.0,1.0,93,0.00,,,0.00,Wunderground v.1.15,2013-02-11 13:15:00,
2013-02-11 08:20:00,63.3,60.6,30.20,South,175,1.0,3.0,91,0.00,,,0.00,Wunderground v.1.15,2013-02-11 13:20:00,
2013-02-11 08:30:00,64.6,61.3,30.20,ESE,111,1.0,1.0,89,0.00,,,0.00,Wunderground v.1.15,2013-02-11 13:30:00,
2013-02-11 08:35:00,65.3,61.7,30.20,SSE,157,1.0,1.0,88,0.00,,,0.00,Wunderground v.1.15,2013-02-11 13:35:00,
2013-02-11 08:45:00,66.6,62.3,30.20,SSE,164,1.0,1.0,86,0.00,,,0.00,Wunderground v.1.15,2013-02-11 13:45:00,
2013-02-11 08:55:00,67.8,62.4,30.20,SSE,159,2.0,2.0,83,0.00,,,0.00,Wunderground v.1.15,2013-02-11 13:55:00,
2013-02-11 09:05:00,69.1,63.0,30.20,SE,138,2.0,2.0,81,0.00,,,0.00,Wunderground v.1.15,2013-02-11 14:05:00,
2013-02-11 09:10:00,69.6,63.2,30.20,SW,227,2.0,2.0,80,0.00,,,0.00,Wunderground v.1.15,2013-02-11 14:10:00,
2013-02-11 09:20:00,70.3,62.7,30.20,SSE,155,3.0,3.0,77,0.00,,,0.00,Wunderground v.1.15,2013-02-11 14:20:00,
2013-02-11 09:25:00,70.5,62.9,30.20,SE,129,4.0,4.0,77,0.00,,,0.00,Wunderground v.1.15,2013-02-11 14:25:00,
2013-02-11 09:35:00,71.4,63.4,30.20,SSE,161,3.0,5.0,76,0.00,,,0.00,Wunderground v.1.15,2013-02-11 14:35:00,
2013-02-11 09:40:00,71.8,63.4,30.19,WNW,286,3.0,3.0,75,0.00,,,0.00,Wunderground v.1.15,2013-02-11 14:40:00,
2013-02-11 09:50:00,72.2,63.4,30.19,SSW,205,3.0,4.0,74,0.00,,,0.00,Wunderground v.1.15,2013-02-11 14:50:00,
2013-02-11 09:55:00,72.4,63.6,30.19,South,191,3.0,4.0,74,0.00,,,0.00,Wunderground v.1.15,2013-02-11 14:55:00,
2013-02-11 10:05:00,73.1,63.5,30.19,WSW,241,3.0,3.0,72,0.00,,,0.00,Wunderground v.1.15,2013-02-11 15:05:00,
2013-02-11 10:10:00,73.7,63.7,30.19,SE,134,2.0,2.0,71,0.00,,,0.00,Wunderground v.1.15,2013-02-11 15:10:00,
2013-02-11 10:20:00,74.3,63.5,30.19,SE,144,4.0,4.0,69,0.00,,,0.00,Wunderground v.1.15,2013-02-11 15:20:00,
2013-02-11 10:25:00,74.5,63.2,30.19,ESE,117,4.0,4.0,68,0.00,,,0.00,Wunderground v.1.15,2013-02-11 15:25:00,
2013-02-11 10:35:00,75.1,63.4,30.19,SE,140,3.0,5.0,67,0.00,,,0.00,Wunderground v.1.15,2013-02-11 15:35:00,
2013-02-11 10:45:00,75.6,63.4,30.19,South,190,4.0,4.0,66,0.00,,,0.00,Wunderground v.1.15,2013-02-11 15:45:00,
2013-02-11 10:50:00,75.9,63.3,30.19,SW,229,3.0,3.0,65,0.00,,,0.00,Wunderground v.1.15,2013-02-11 15:50:00,
2013-02-11 11:00:00,76.5,63.4,30.19,SSW,202,3.0,6.0,64,0.00,,,0.00,Wunderground v.1.15,2013-02-11 16:00:00,
2013-02-11 11:10:00,77.0,63.4,30.19,SSW,209,3.0,3.0,63,0.00,,,0.00,Wunderground v.1.15,2013-02-11 16:10:00,
2013-02-11 11:15:00,77.3,63.7,30.18,West,272,3.0,3.0,63,0.00,,,0.00,Wunderground v.1.15,2013-02-11 16:15:00,
2013-02-11 11:20:00,77.8,63.3,30.18,SSW,200,3.0,3.0,61,0.00,,,0.00,Wunderground v.1.15,2013-02-11 16:20:00,
2013-02-11 11:30:00,77.9,63.8,30.18,SW,236,3.0,4.0,62,0.00,,,0.00,Wunderground v.1.15,2013-02-11 16:30:00,
2013-02-11 11:40:00,78.4,63.8,30.17,West,281,3.0,3.0,61,0.00,,,0.00,Wunderground v.1.15,2013-02-11 16:40:00,
2013-02-11 11:45:00,78.8,63.7,30.17,SSE,151,3.0,3.0,60,0.00,,,0.00,Wunderground v.1.15,2013-02-11 16:45:00,
2013-02-11 11:55:00,78.9,63.8,30.17,South,189,3.0,5.0,60,0.00,,,0.00,Wunderground v.1.15,2013-02-11 16:55:00,
2013-02-11 12:00:00,79.0,63.9,30.17,SW,229,3.0,3.0,60,0.00,,,0.00,Wunderground v.1.15,2013-02-11 17:00:00,
2013-02-11 12:05:00,79.0,63.9,30.16,ENE,61,3.0,3.0,60,0.00,,,0.00,Wunderground v.1.15,2013-02-11 17:05:00,
2013-02-11 12:15:00,79.6,63.5,30.16,West,271,2.0,4.0,58,0.00,,,0.00,Wunderground v.1.15,2013-02-11 17:15:00,
2013-02-11 12:25:00,79.4,63.3,30.15,West,259,3.0,5.0,58,0.00,,,0.00,Wunderground v.1.15,2013-02-11 17:25:00,
2013-02-11 12:30:00,79.4,63.3,30.16,SE,128,3.0,3.0,58,0.00,,,0.00,Wunderground v.1.15,2013-02-11 17:30:00,
2013-02-11 12:40:00,80.2,63.6,30.15,SSW,200,2.0,4.0,57,0.00,,,0.00,Wunderground v.1.15,2013-02-11 17:40:00,
2013-02-11 12:45:00,80.6,62.9,30.15,South,173,3.0,4.0,55,0.00,,,0.00,Wunderground v.1.15,2013-02-11 17:45:00,
2013-02-11 12:55:00,80.6,64.0,30.14,SSW,201,2.0,5.0,57,0.00,,,0.00,Wunderground v.1.15,2013-02-11 17:55:00,
2013-02-11 13:00:00,81.0,63.3,30.14,South,182,3.0,3.0,55,0.00,,,0.00,Wunderground v.1.15,2013-02-11 18:00:00,
2013-02-11 13:10:00,80.8,63.1,30.13,WNW,283,3.0,3.0,55,0.00,,,0.00,Wunderground v.1.15,2013-02-11 18:10:00,
2013-02-11 13:20:00,80.5,62.8,30.13,SW,223,2.0,2.0,55,0.00,,,0.00,Wunderground v.1.15,2013-02-11 18:20:00,
2013-02-11 13:30:00,80.6,62.4,30.12,SSW,200,3.0,3.0,54,0.00,,,0.00,Wunderground v.1.15,2013-02-11 18:30:00,
2013-02-11 13:35:00,80.6,62.4,30.12,SW,218,2.0,3.0,54,0.00,,,0.00,Wunderground v.1.15,2013-02-11 18:35:00,
2013-02-11 13:45:00,81.7,63.4,30.11,WSW,248,2.0,4.0,54,0.00,,,0.00,Wunderground v.1.15,2013-02-11 18:45:00,
2013-02-11 13:55:00,80.8,63.1,30.11,West,259,2.0,2.0,55,0.00,,,0.00,Wunderground v.1.15,2013-02-11 18:55:00,
2013-02-11 14:00:00,81.5,62.7,30.11,West,261,3.0,5.0,53,0.00,,,0.00,Wunderground v.1.15,2013-02-11 19:00:00,
2013-02-11 14:10:00,81.5,62.2,30.11,SW,227,4.0,4.0,52,0.00,,,0.00,Wunderground v.1.15,2013-02-11 19:10:00,
2013-02-11 14:20:00,81.8,63.0,30.10,SW,227,2.0,2.0,53,0.00,,,0.00,Wunderground v.1.15,2013-02-11 19:20:00,
2013-02-11 14:30:00,82.1,62.2,30.10,SSW,206,3.0,3.0,51,0.00,,,0.00,Wunderground v.1.15,2013-02-11 19:30:00,
2013-02-11 14:35:00,81.8,62.5,30.10,SSE,167,3.0,3.0,52,0.00,,,0.00,Wunderground v.1.15,2013-02-11 19:35:00,
2013-02-11 14:45:00,81.5,62.2,30.09,South,170,3.0,3.0,52,0.00,,,0.00,Wunderground v.1.15,2013-02-11 19:45:00,
2013-02-11 14:50:00,81.6,62.3,30.09,West,276,2.0,2.0,52,0.00,,,0.00,Wunderground v.1.15,2013-02-11 19:50:00,
2013-02-11 15:00:00,81.7,62.4,30.08,West,276,2.0,2.0,52,0.00,,,0.00,Wunderground v.1.15,2013-02-11 20:00:00,
2013-02-11 15:05:00,82.4,62.5,30.08,SW,232,2.0,2.0,51,0.00,,,0.00,Wunderground v.1.15,2013-02-11 20:05:00,
2013-02-11 15:15:00,82.8,62.3,30.08,West,269,2.0,3.0,50,0.00,,,0.00,Wunderground v.1.15,2013-02-11 20:15:00,
2013-02-11 15:20:00,82.3,61.8,30.08,WSW,241,1.0,1.0,50,0.00,,,0.00,Wunderground v.1.15,2013-02-11 20:20:00,
2013-02-11 15:25:00,82.1,62.2,30.07,SSW,199,2.0,4.0,51,0.00,,,0.00,Wunderground v.1.15,2013-02-11 20:25:00,
2013-02-11 15:35:00,82.1,62.2,30.07,SSE,163,3.0,3.0,51,0.00,,,0.00,Wunderground v.1.15,2013-02-11 20:35:00,
2013-02-11 15:45:00,80.9,61.6,30.07,West,265,2.0,3.0,52,0.00,,,0.00,Wunderground v.1.15,2013-02-11 20:45:00,
2013-02-11 15:50:00,80.6,61.9,30.07,West,269,2.0,4.0,53,0.00,,,0.00,Wunderground v.1.15,2013-02-11 20:50:00,
2013-02-11 16:00:00,80.6,61.9,30.07,WSW,252,2.0,4.0,53,0.00,,,0.00,Wunderground v.1.15,2013-02-11 21:00:00,
2013-02-11 16:05:00,80.5,61.8,30.07,SSW,200,2.0,4.0,53,0.00,,,0.00,Wunderground v.1.15,2013-02-11 21:05:00,
2013-02-11 16:10:00,80.2,61.5,30.07,SE,140,1.0,1.0,53,0.00,,,0.00,Wunderground v.1.15,2013-02-11 21:10:00,
2013-02-11 16:20:00,80.2,61.5,30.06,WSW,249,1.0,1.0,53,0.00,,,0.00,Wunderground v.1.15,2013-02-11 21:20:00,
2013-02-11 16:30:00,80.3,61.1,30.06,SW,221,1.0,1.0,52,0.00,,,0.00,Wunderground v.1.15,2013-02-11 21:30:00,
2013-02-11 16:35:00,80.6,61.3,30.06,South,176,1.0,1.0,52,0.00,,,0.00,Wunderground v.1.15,2013-02-11 21:35:00,
2013-02-11 16:45:00,80.9,61.6,30.06,WSW,242,2.0,3.0,52,0.00,,,0.00,Wunderground v.1.15,2013-02-11 21:45:00,
2013-02-11 16:55:00,80.7,62.0,30.06,West,266,2.0,2.0,53,0.00,,,0.00,Wunderground v.1.15,2013-02-11 21:55:00,
2013-02-11 17:00:00,80.7,62.0,30.06,WNW,288,1.0,1.0,53,0.00,,,0.00,Wunderground v.1.15,2013-02-11 22:00:00,
2013-02-11 17:10:00,80.2,61.5,30.06,WSW,248,1.0,1.0,53,0.00,,,0.00,Wunderground v.1.15,2013-02-11 22:10:00,
2013-02-11 17:15:00,80.0,61.9,30.06,West,278,1.0,2.0,54,0.00,,,0.00,Wunderground v.1.15,2013-02-11 22:15:00,
2013-02-11 17:25:00,80.0,61.3,30.06,WSW,254,1.0,2.0,53,0.00,,,0.00,Wunderground v.1.15,2013-02-11 22:25:00,
2013-02-11 17:30:00,79.9,61.8,30.06,SW,236,1.0,1.0,54,0.00,,,0.00,Wunderground v.1.15,2013-02-11 22:30:00,
2013-02-11 17:40:00,79.6,61.5,30.06,WSW,240,0.0,0.0,54,0.00,,,0.00,Wunderground v.1.15,2013-02-11 22:40:00,
2013-02-11 17:45:00,79.4,61.3,30.06,WSW,254,1.0,1.0,54,0.00,,,0.00,Wunderground v.1.15,2013-02-11 22:45:00,
2013-02-11 17:55:00,78.8,61.3,30.06,WSW,247,1.0,1.0,55,0.00,,,0.00,Wunderground v.1.15,2013-02-11 22:55:00,
2013-02-11 18:00:00,78.5,61.5,30.06,WSW,247,1.0,1.0,56,0.00,,,0.00,Wunderground v.1.15,2013-02-11 23:00:00,
2013-02-11 18:10:00,77.8,62.8,30.07,WSW,248,1.0,1.0,60,0.00,,,0.00,Wunderground v.1.15,2013-02-11 23:10:00,
2013-02-11 18:20:00,77.1,64.0,30.07,West,268,1.0,1.0,64,0.00,,,0.00,Wunderground v.1.15,2013-02-11 23:20:00,
2013-02-11 18:30:00,76.3,64.5,30.07,West,269,1.0,1.0,67,0.00,,,0.00,Wunderground v.1.15,2013-02-11 23:30:00,
2013-02-11 18:35:00,75.9,64.6,30.08,West,266,0.0,1.0,68,0.00,,,0.00,Wunderground v.1.15,2013-02-11 23:35:00,
2013-02-11 18:45:00,75.2,64.3,30.08,West,266,0.0,0.0,69,0.00,,,0.00,Wunderground v.1.15,2013-02-11 23:45:00,
2013-02-11 18:50:00,74.9,64.5,30.08,West,266,0.0,0.0,70,0.00,,,0.00,Wunderground v.1.15,2013-02-11 23:50:00,
2013-02-11 18:55:00,74.7,64.3,30.09,West,266,0.0,0.0,70,0.00,,,0.00,Wunderground v.1.15,2013-02-11 23:55:00,
2013-02-11 19:05:00,74.1,64.1,30.08,West,266,0.0,0.0,71,0.00,,,0.00,Wunderground v.1.15,2013-02-12 00:05:00,
2013-02-11 19:15:00,73.7,64.1,30.08,West,265,0.0,1.0,72,0.00,,,0.00,Wunderground v.1.15,2013-02-12 00:15:00,
2013-02-11 19:20:00,73.4,64.2,30.09,West,265,0.0,0.0,73,0.00,,,0.00,Wunderground v.1.15,2013-02-12 00:20:00,
2013-02-11 19:30:00,72.9,64.1,30.09,West,265,0.0,0.0,74,0.00,,,0.00,Wunderground v.1.15,2013-02-12 00:30:00,
2013-02-11 19:40:00,72.4,64.0,30.09,West,265,0.0,0.0,75,0.00,,,0.00,Wunderground v.1.15,2013-02-12 00:40:00,
2013-02-11 19:45:00,72.2,63.8,30.09,West,265,0.0,0.0,75,0.00,,,0.00,Wunderground v.1.15,2013-02-12 00:45:00,
2013-02-11 19:55:00,71.6,63.6,30.10,West,265,0.0,0.0,76,0.00,,,0.00,Wunderground v.1.15,2013-02-12 00:55:00,
2013-02-11 20:00:00,71.3,63.7,30.10,West,265,0.0,0.0,77,0.00,,,0.00,Wunderground v.1.15,2013-02-12 01:00:00,
2013-02-11 20:10:00,70.8,63.6,30.10,West,265,0.0,0.0,78,0.00,,,0.00,Wunderground v.1.15,2013-02-12 01:10:00,
2013-02-11 20:15:00,70.4,63.6,30.10,West,265,0.0,0.0,79,0.00,,,0.00,Wunderground v.1.15,2013-02-12 01:15:00,
2013-02-11 20:25:00,69.8,63.3,30.10,West,265,0.0,0.0,80,0.00,,,0.00,Wunderground v.1.15,2013-02-12 01:25:00,
2013-02-11 20:30:00,69.5,63.4,30.10,West,265,0.0,0.0,81,0.00,,,0.00,Wunderground v.1.15,2013-02-12 01:30:00,
2013-02-11 20:40:00,69.1,63.4,30.10,West,265,0.0,0.0,82,0.00,,,0.00,Wunderground v.1.15,2013-02-12 01:40:00,
2013-02-11 20:45:00,68.9,63.2,30.10,West,265,0.0,0.0,82,0.00,,,0.00,Wunderground v.1.15,2013-02-12 01:45:00,
2013-02-11 20:55:00,68.5,63.1,30.10,West,265,0.0,0.0,83,0.00,,,0.00,Wunderground v.1.15,2013-02-12 01:55:00,
2013-02-11 21:00:00,68.2,63.2,30.10,West,265,0.0,0.0,84,0.00,,,0.00,Wunderground v.1.15,2013-02-12 02:00:00,
2013-02-11 21:10:00,67.8,63.1,30.09,West,265,0.0,0.0,85,0.00,,,0.00,Wunderground v.1.15,2013-02-12 02:10:00,
2013-02-11 21:15:00,67.7,63.0,30.09,West,265,0.0,0.0,85,0.00,,,0.00,Wunderground v.1.15,2013-02-12 02:15:00,
2013-02-11 21:25:00,67.2,62.5,30.09,West,265,0.0,0.0,85,0.00,,,0.00,Wunderground v.1.15,2013-02-12 02:25:00,
2013-02-11 21:35:00,66.7,62.4,30.09,West,265,0.0,0.0,86,0.00,,,0.00,Wunderground v.1.15,2013-02-12 02:35:00,
2013-02-11 21:40:00,66.5,62.2,30.09,West,265,0.0,0.0,86,0.00,,,0.00,Wunderground v.1.15,2013-02-12 02:40:00,
2013-02-11 21:50:00,66.1,62.1,30.09,West,265,0.0,0.0,87,0.00,,,0.00,Wunderground v.1.15,2013-02-12 02:50:00,
2013-02-11 22:00:00,65.7,62.0,30.09,West,265,0.0,0.0,88,0.00,,,0.00,Wunderground v.1.15,2013-02-12 03:00:00,
2013-02-11 22:05:00,65.5,61.9,30.09,West,265,0.0,0.0,88,0.00,,,0.00,Wunderground v.1.15,2013-02-12 03:05:00,
2013-02-11 22:15:00,65.2,61.9,30.09,West,265,0.0,0.0,89,0.00,,,0.00,Wunderground v.1.15,2013-02-12 03:15:00,
2013-02-11 22:20:00,65.1,62.1,30.09,West,265,0.0,0.0,90,0.00,,,0.00,Wunderground v.1.15,2013-02-12 03:20:00,
2013-02-11 22:30:00,64.9,61.9,30.09,West,265,0.0,0.0,90,0.00,,,0.00,Wunderground v.1.15,2013-02-12 03:30:00,
2013-02-11 22:35:00,64.7,61.7,30.09,West,265,0.0,0.0,90,0.00,,,0.00,Wunderground v.1.15,2013-02-12 03:35:00,
2013-02-11 22:45:00,64.4,61.7,30.09,West,265,0.0,0.0,91,0.00,,,0.00,Wunderground v.1.15,2013-02-12 03:45:00,
2013-02-11 22:50:00,64.3,61.6,30.09,West,265,0.0,0.0,91,0.00,,,0.00,Wunderground v.1.15,2013-02-12 03:50:00,
2013-02-11 23:00:00,64.0,61.3,30.09,West,265,0.0,0.0,91,0.00,,,0.00,Wunderground v.1.15,2013-02-12 04:00:00,
2013-02-11 23:10:00,63.7,61.3,30.09,West,265,0.0,0.0,92,0.00,,,0.00,Wunderground v.1.15,2013-02-12 04:10:00,
2013-02-11 23:20:00,63.3,60.9,30.09,West,265,0.0,0.0,92,0.00,,,0.00,Wunderground v.1.15,2013-02-12 04:20:00,
2013-02-11 23:25:00,63.1,60.7,30.09,West,265,0.0,0.0,92,0.00,,,0.00,Wunderground v.1.15,2013-02-12 04:25:00,
2013-02-11 23:30:00,63.0,60.6,30.09,West,265,0.0,0.0,92,0.00,,,0.00,Wunderground v.1.15,2013-02-12 04:30:00,
2013-02-11 23:40:00,62.9,60.8,30.09,West,265,0.0,0.0,93,0.00,,,0.00,Wunderground v.1.15,2013-02-12 04:40:00,
2013-02-11 23:50:00,62.7,60.6,30.08,West,265,0.0,0.0,93,0.00,,,0.00,Wunderground v.1.15,2013-02-12 04:50:00,
2013-02-11 23:55:00,62.6,60.5,30.08,West,265,0.0,0.0,93,0.00,,,0.00,Wunderground v.1.15,2013-02-12 04:55:00,